Flag for U.S.A. Weather past 2 weeks in Vista, California, U.S.A.

Now
61 °F

Low clouds.


Feels Like: 61 °F
Forecast: 57 / 76 °F
Wind: No wind

Location: McClellan-Palomar Airport

Current Time: May 30, 2015 at 12:27:35 AM

Latest Report: May 29, 2015 at 11:53 PM


Visibility: 9 mi

Pressure: 29.92 "Hg

Humidity: 87%

Dew point: 57 °F

Location of VistaLocation

Historic Weather in Vista — Graph

°F

Vista temperature yesterday

Maximum temperature yesterday: 67 °F (at 10:53 AM)
Minimum temperature yesterday: 60 °F (at 2:53 AM)
Average temperature yesterday: 63 °F

Past Weeks' High & Low Weather Summary

 TemperatureHumidityPressure
High67 °F (May 28, 1:53 PM)93% (May 15, 12:53 AM)30.09 "Hg (May 15, 12:53 AM)
Low55 °F (May 15, 8:53 AM)54% (May 15, 2:53 PM)29.80 "Hg (May 15, 3:53 PM)
Average61 °F74%29.98 "Hg
* Reported May 14 10:53 PM — May 29 10:53 PM, Vista, Weather by CustomWeather, © 2015

Note: Actual official high and low records may vary slightly from our data, if they occured in-between our weather recording intervals... More about our weather records

Advertising

Vista weather history for previous 24 hours

 ConditionsComfort  
Time TempWeatherWind HumidityBarometerVisibility
10:53 PM
Fri, May 29
61 °FLow clouds.No wind87%29.92 "Hg10 mi
9:53 PM62 °FLow clouds.No wind83%29.92 "Hg10 mi
8:53 PM62 °FOvercast.5 mph80%29.91 "Hg10 mi
7:53 PM62 °FOvercast.5 mph80%29.90 "Hg10 mi
6:53 PM63 °FPartly sunny.7 mph78%29.89 "Hg10 mi
5:53 PM64 °FSunny.8 mph78%29.88 "Hg10 mi
4:53 PM66 °FSunny.7 mph73%29.89 "Hg10 mi
3:53 PM66 °FSunny.3 mph73%29.90 "Hg10 mi
2:53 PM65 °FOvercast.8 mph76%29.93 "Hg10 mi
1:53 PM66 °FPassing clouds.10 mph75%29.93 "Hg10 mi
12:53 PM67 °FSunny.12 mph73%29.93 "Hg10 mi
11:53 AM67 °FSunny.10 mph73%29.93 "Hg9 mi
10:53 AM67 °FScattered clouds.3 mph73%29.94 "Hg8 mi
9:53 AM62 °FLow clouds.3 mph83%29.95 "Hg7 mi
8:53 AM61 °FFog.No wind87%29.96 "Hg6 mi
7:53 AM61 °FFog.No wind87%29.95 "Hg6 mi
6:53 AM61 °FFog.No wind87%29.93 "Hg6 mi
5:53 AM60 °FLow clouds.No wind86%29.93 "Hg8 mi
4:53 AM60 °FLow clouds.No wind86%29.93 "Hg8 mi
3:53 AM60 °FLow clouds.No wind86%29.93 "Hg9 mi
2:53 AM60 °FLow clouds.3 mph86%29.94 "Hg9 mi
1:53 AM61 °FLow clouds.5 mph83%29.94 "Hg10 mi
12:53 AM61 °FLow clouds.5 mph87%29.94 "Hg10 mi
Weather by CustomWeather, © 2015

See weather overviewHow to use our weather pages